Location: Cheching
(60.0667°N, 164.2167°W)
Time: 12:32:48
(UTC+00:00)

UKube-1 - Visible Passes

Search period start: 16 January 2021 00:00
Search period end: 26 January 2021 00:00
Orbit: 612 x 618 km, 98.4° (Epoch: 16 January)

Date Brightness Start Highest point End Pass type
(mag) Time Alt. Az. Time Alt. Az. Time Alt. Az.
16 Jan ? 15:55:10 10° ESE 15:58:57 31° ENE 16:01:49 15° N visible
16 Jan ? 17:30:31 10° S 17:34:46 56° WSW 17:38:53 11° NNW visible
17 Jan ? 14:38:08 10° ENE 14:39:43 12° NE 14:40:51 11° NNE visible
17 Jan ? 16:10:40 10° SE 16:14:40 39° ENE 16:17:55 15° N visible
17 Jan ? 17:46:31 10° S 17:50:38 42° W 17:54:47 10° NNW visible
18 Jan ? 14:53:01 10° ENE 14:55:17 14° NE 14:56:58 12° NNE visible
18 Jan ? 16:26:14 10° SE 16:30:24 49° ENE 16:34:02 13° N visible
18 Jan ? 18:02:38 10° SSW 18:06:32 33° W 18:10:28 10° NNW visible
19 Jan ? 15:08:08 10° E 15:10:53 17° NE 15:13:04 12° NNE visible
19 Jan ? 16:41:53 10° SSE 16:46:09 63° ENE 16:50:09 12° NNW visible
19 Jan ? 18:18:53 10° SSW 18:22:29 25° W 18:26:06 10° NW visible
20 Jan ? 15:23:21 10° E 15:26:30 20° NE 15:29:12 12° N visible
20 Jan ? 16:57:37 10° SSE 17:01:56 82° ENE 17:06:16 10° NNW visible
20 Jan ? 18:35:15 10° SW 18:38:27 20° W 18:41:39 10° NW visible
21 Jan ? 15:38:40 10° ESE 15:42:09 24° NE 15:45:20 11° N visible
21 Jan ? 17:13:26 10° SSE 17:17:44 77° WSW 17:22:05 10° NNW visible
22 Jan ? 15:54:04 10° ESE 15:57:49 30° NE 16:01:29 10° N visible
22 Jan ? 17:29:20 10° S 17:33:35 59° WSW 17:37:52 10° NNW visible
23 Jan ? 14:37:10 10° ENE 14:38:34 11° NE 14:39:58 10° NNE visible
23 Jan ? 16:09:32 10° SE 16:13:30 37° ENE 16:17:29 10° N visible
23 Jan ? 17:45:19 10° S 17:49:27 45° W 17:53:36 10° NNW visible
24 Jan ? 14:52:01 10° ENE 14:54:09 14° NE 14:56:16 10° NNE visible
24 Jan ? 16:25:06 10° SE 16:29:14 47° ENE 16:33:22 10° N visible
24 Jan ? 18:01:24 10° SSW 18:05:20 34° W 18:09:18 10° NNW visible
25 Jan ? 15:07:04 10° E 15:09:44 16° NE 15:12:23 10° N visible
25 Jan ? 16:40:44 10° SE 16:44:58 60° ENE 16:49:14 10° NNW visible
25 Jan ? 18:17:36 10° SSW 18:21:16 27° W 18:24:57 10° NW visible
